Regional Weather Roundup
Issued by NWS

Home | Current Version | Previous Version | Graphics & Text | Print | Product List | Glossary On
Versions: 1 2 3 4 5 6 7 8 9 10 11 12 13 14 15 16 17 18 19 20 21 22 23 24 25 26 27 28 29 30 31 32 33 34 35 36 37 38 39 40 41 42 43 44 45 46 47 48 49 50
000
ASUS45 KSLC 281010
RWRUT

UTAH REGIONAL WEATHER ROUNDUP
NATIONAL WEATHER SERVICE SALT LAKE CITY UT
400 AM MDT FRI AUG 28 2015

UTZ001>011-023>025-281100-

NORTHERN UTAH

CITY           SKY/WX    TMP DP  RH WIND       PRES   REMARKS
BRIGHAM CITY     N/A     62  52  70 CALM      30.18S
HILL AFB         N/A     65  44  45 E17       30.20F
LOGAN          CLEAR     53  49  86 E3        30.21R
OGDEN            N/A     65  44  46 S8        30.18S
PROVO AIRPORT    N/A     61  45  55 CALM      30.22S
SALT LAKE CITY   N/A     69  46  43 S8        30.17S
VERNAL         CLEAR     56  42  59 W6        30.28S
WENDOVER         N/A     66  43  42 SW6       30.17R
HEBER CITY       N/A     50  43  76 CALM      30.31S
WEST JORDAN    CLEAR     66  48  52 SW5       30.21S

$$

UTZ012>022-026-027-281100-

SOUTHERN/CENTRAL UTAH

CITY           SKY/WX    TMP DP  RH WIND       PRES   REMARKS
BLANDING         N/A     66  43  42 CALM      30.31S
BRYCE CANYON     N/A     48  44  86 W8        30.42S
CEDAR CITY       N/A     55  46  71 N3        30.26S
DELTA            N/A     60  46  58 E5        30.20S
HANKSVILLE       N/A     63  54  72 CALM      30.20R
MILFORD          N/A     58  44  60 SW7       30.22S
MOAB/CYNLANDS  CLEAR     67  49  52 NE5       30.17S
PRICE            N/A     60  42  51 N9        30.28S
ST GEORGE        N/A     75  48  38 CALM      30.08R
KANAB            N/A     61  55  82 NE3       30.27S

$$

REGIONAL REPORTS     COLORADO/ARIZONA

CITY           SKY/WX    TMP DP  RH WIND       PRES   REMARKS
CRAIG, CO      CLEAR     47  45  93 CALM      30.33F
GRAND JUNCTION CLEAR     60  53  77 NE12      30.24R
RIFLE          CLEAR     53  50  89 E6        30.30F
MONTROSE       CLEAR     57  51  80 E6        30.31F
CORTEZ         CLEAR     53  50  89 N5        30.26S
PAGE, AZ         N/A     73  51  46 CALM      30.14S
GRAND CANYON     N/A     49  44  83 NE6       30.34S
KINGMAN          N/A     77  55  46 SE13      30.08S
FLAGSTAFF        N/A     52  51  97 CALM      30.35F

$$

REGIONAL REPORTS    NEVADA/IDAHO/WYOMING

CITY           SKY/WX    TMP DP  RH WIND       PRES   REMARKS
LAS VEGAS, NV    N/A     86  52  30 S3        29.93S
ELY              N/A     49  43  80 S12       30.32R
ELKO             N/A     57  32  38 CALM      30.21R
POCATELLO, ID  CLEAR     55  43  63 N5        30.19R
BURLEY           N/A     56  46  69 E3        30.14R
EVANSTON, WY   PTCLDY    56  37  49 SW6       30.38S
ROCK SPRINGS   CLEAR     50  42  74 W9        30.34F
KEMMERER       CLEAR     45  36  70 N9        30.40R

$$



USA.gov is the U.S. government's official web portal to all federal, state and local government web resources and services.